Time,TemperatureF,DewpointF,PressureIn,WindDirection,WindDirectionDegrees,WindSpeedMPH,WindSpeedGustMPH,Humidity,HourlyPrecipIn,Conditions,Clouds,dailyrainin,SoftwareType,DateUTC
2014-12-17 00:15:00,35.0,34.0,29.87,NNW,329,6.0,16.0,95,0.00,,,0.00,weatherlink.com 1.10,2014-12-17 05:15:00,
2014-12-17 00:30:00,34.9,34.0,29.87,WNW,293,3.0,11.0,95,0.00,,,0.00,weatherlink.com 1.10,2014-12-17 05:30:00,
2014-12-17 01:00:00,34.5,33.0,29.88,West,275,6.0,13.0,94,0.00,,,0.00,weatherlink.com 1.10,2014-12-17 06:00:00,
2014-12-17 01:15:00,34.2,33.0,29.89,NW,308,11.0,14.0,94,0.00,,,0.00,weatherlink.com 1.10,2014-12-17 06:15:00,
2014-12-17 01:30:00,33.8,32.0,29.89,NNW,338,2.0,16.0,94,0.00,,,0.00,weatherlink.com 1.10,2014-12-17 06:30:00,
2014-12-17 01:45:00,33.4,32.0,29.90,WSW,252,8.0,19.0,94,0.00,,,0.00,weatherlink.com 1.10,2014-12-17 06:45:00,
2014-12-17 02:00:00,33.0,32.0,29.90,WNW,299,4.0,16.0,94,0.00,,,0.00,weatherlink.com 1.10,2014-12-17 07:00:00,
2014-12-17 02:30:00,32.5,31.0,29.91,NNW,333,13.0,18.0,95,0.00,,,0.00,weatherlink.com 1.10,2014-12-17 07:30:00,
2014-12-17 02:46:00,32.5,31.0,29.92,WSW,246,8.0,18.0,94,0.00,,,0.00,weatherlink.com 1.10,2014-12-17 07:46:00,
2014-12-17 03:31:00,32.7,30.0,29.93,WNW,288,8.0,20.0,90,0.00,,,0.00,weatherlink.com 1.10,2014-12-17 08:31:00,
2014-12-17 03:46:00,32.6,30.0,29.93,WNW,300,5.0,18.0,90,0.00,,,0.00,weatherlink.com 1.10,2014-12-17 08:46:00,
2014-12-17 04:01:00,32.6,30.0,29.93,NNW,328,3.0,24.0,89,0.00,,,0.00,weatherlink.com 1.10,2014-12-17 09:01:00,
2014-12-17 04:16:00,32.3,29.0,29.94,NW,322,15.0,15.0,88,0.00,,,0.00,weatherlink.com 1.10,2014-12-17 09:16:00,
2014-12-17 04:31:00,32.1,28.0,29.94,WNW,293,7.0,20.0,86,0.00,,,0.00,weatherlink.com 1.10,2014-12-17 09:31:00,
2014-12-17 04:46:00,32.2,29.0,29.94,WSW,249,5.0,19.0,86,0.00,,,0.00,weatherlink.com 1.10,2014-12-17 09:46:00,
2014-12-17 05:16:00,32.1,29.0,29.95,WSW,255,8.0,17.0,88,0.00,,,0.00,weatherlink.com 1.10,2014-12-17 10:16:00,
2014-12-17 05:31:00,31.8,29.0,29.95,WNW,301,18.0,21.0,88,0.00,,,0.00,weatherlink.com 1.10,2014-12-17 10:31:00,
2014-12-17 05:46:00,31.6,29.0,29.96,NW,311,4.0,11.0,89,0.00,,,0.00,weatherlink.com 1.10,2014-12-17 10:46:00,
2014-12-17 06:01:00,31.3,29.0,29.96,West,269,3.0,14.0,89,0.00,,,0.00,weatherlink.com 1.10,2014-12-17 11:01:00,
2014-12-17 06:16:00,31.3,28.0,29.97,WNW,294,13.0,16.0,87,0.00,,,0.00,weatherlink.com 1.10,2014-12-17 11:16:00,
2014-12-17 06:31:00,31.2,27.0,29.98,West,280,12.0,22.0,85,0.00,,,0.00,weatherlink.com 1.10,2014-12-17 11:31:00,
2014-12-17 06:46:00,30.9,28.0,29.99,NW,309,7.0,12.0,88,0.00,,,0.00,weatherlink.com 1.10,2014-12-17 11:46:00,
2014-12-17 07:01:00,30.8,28.0,30.00,WSW,256,6.0,16.0,88,0.00,,,0.00,weatherlink.com 1.10,2014-12-17 12:01:00,
2014-12-17 07:16:00,30.5,28.0,30.01,NW,326,9.0,17.0,89,0.00,,,0.00,weatherlink.com 1.10,2014-12-17 12:16:00,
2014-12-17 07:37:00,30.5,27.0,30.01,WNW,288,9.0,19.0,88,0.00,,,0.00,weatherlink.com 1.10,2014-12-17 12:37:00,
2014-12-17 07:46:00,30.5,27.0,30.01,NW,311,13.0,18.0,87,0.00,,,0.00,weatherlink.com 1.10,2014-12-17 12:46:00,
2014-12-17 08:01:00,30.6,27.0,30.02,NW,318,7.0,19.0,87,0.00,,,0.00,weatherlink.com 1.10,2014-12-17 13:01:00,
2014-12-17 08:16:00,30.4,27.0,30.02,NW,311,5.0,17.0,87,0.00,,,0.00,weatherlink.com 1.10,2014-12-17 13:16:00,
2014-12-17 08:31:00,30.5,27.0,30.02,WNW,294,8.0,15.0,88,0.00,,,0.00,weatherlink.com 1.10,2014-12-17 13:31:00,
2014-12-17 08:47:00,30.2,27.0,30.02,West,271,3.0,18.0,89,0.00,,,0.00,weatherlink.com 1.10,2014-12-17 13:47:00,
2014-12-17 09:02:00,30.2,27.0,30.03,NW,311,10.0,15.0,89,0.00,,,0.00,weatherlink.com 1.10,2014-12-17 14:02:00,
2014-12-17 09:17:00,30.1,27.0,30.03,WNW,300,7.0,20.0,89,0.00,,,0.00,weatherlink.com 1.10,2014-12-17 14:17:00,
2014-12-17 09:32:00,30.1,27.0,30.04,WSW,254,12.0,17.0,89,0.00,,,0.00,weatherlink.com 1.10,2014-12-17 14:32:00,
2014-12-17 09:47:00,30.2,27.0,30.04,NW,323,12.0,18.0,88,0.00,,,0.00,weatherlink.com 1.10,2014-12-17 14:47:00,
2014-12-17 10:02:00,30.2,27.0,30.05,West,266,5.0,17.0,87,0.00,,,0.00,weatherlink.com 1.10,2014-12-17 15:02:00,
2014-12-17 10:17:00,29.7,27.0,30.05,WNW,299,10.0,17.0,89,0.00,,,0.00,weatherlink.com 1.10,2014-12-17 15:17:00,
2014-12-17 10:32:00,29.6,27.0,30.06,WNW,301,19.0,19.0,89,0.00,,,0.00,weatherlink.com 1.10,2014-12-17 15:32:00,
2014-12-17 10:47:00,29.8,27.0,30.06,NW,312,9.0,15.0,88,0.00,,,0.00,weatherlink.com 1.10,2014-12-17 15:47:00,
2014-12-17 11:02:00,29.9,27.0,30.07,WNW,299,7.0,16.0,87,0.00,,,0.00,weatherlink.com 1.10,2014-12-17 16:02:00,
2014-12-17 11:17:00,30.0,26.0,30.06,WNW,298,6.0,19.0,84,0.00,,,0.00,weatherlink.com 1.10,2014-12-17 16:17:00,
2014-12-17 11:32:00,30.1,26.0,30.06,West,270,6.0,17.0,83,0.00,,,0.00,weatherlink.com 1.10,2014-12-17 16:32:00,
2014-12-17 11:47:00,30.1,25.0,30.06,WSW,255,7.0,16.0,82,0.00,,,0.00,weatherlink.com 1.10,2014-12-17 16:47:00,
2014-12-17 12:02:00,30.0,25.0,30.05,WNW,296,6.0,23.0,80,0.00,,,0.00,weatherlink.com 1.10,2014-12-17 17:02:00,
2014-12-17 12:47:00,29.3,24.0,30.05,SW,231,10.0,19.0,81,0.00,,,0.00,weatherlink.com 1.10,2014-12-17 17:47:00,
2014-12-17 13:02:00,29.2,24.0,30.05,NW,306,9.0,17.0,81,0.00,,,0.00,weatherlink.com 1.10,2014-12-17 18:02:00,
2014-12-17 13:17:00,29.0,24.0,30.05,WNW,288,5.0,19.0,80,0.00,,,0.00,weatherlink.com 1.10,2014-12-17 18:17:00,
2014-12-17 13:32:00,28.9,23.0,30.06,NW,311,9.0,20.0,79,0.00,,,0.00,weatherlink.com 1.10,2014-12-17 18:32:00,
2014-12-17 13:48:00,28.9,23.0,30.05,NW,306,8.0,16.0,79,0.00,,,0.00,weatherlink.com 1.10,2014-12-17 18:48:00,
2014-12-17 14:02:00,28.9,23.0,30.05,SW,226,7.0,17.0,80,0.00,,,0.00,weatherlink.com 1.10,2014-12-17 19:02:00,
2014-12-17 14:17:00,28.9,23.0,30.06,West,277,5.0,19.0,79,0.00,,,0.00,weatherlink.com 1.10,2014-12-17 19:17:00,
2014-12-17 14:32:00,28.9,23.0,30.05,WSW,253,5.0,16.0,80,0.00,,,0.00,weatherlink.com 1.10,2014-12-17 19:32:00,
2014-12-17 14:47:00,28.8,23.0,30.06,West,280,6.0,17.0,79,0.00,,,0.00,weatherlink.com 1.10,2014-12-17 19:47:00,
2014-12-17 15:02:00,28.7,23.0,30.06,WNW,293,4.0,17.0,78,0.00,,,0.00,weatherlink.com 1.10,2014-12-17 20:02:00,
2014-12-17 15:17:00,28.6,23.0,30.06,SW,235,5.0,19.0,78,0.00,,,0.00,weatherlink.com 1.10,2014-12-17 20:17:00,
2014-12-17 15:33:00,28.4,22.0,30.06,West,276,6.0,22.0,77,0.00,,,0.00,weatherlink.com 1.10,2014-12-17 20:33:00,
2014-12-17 15:47:00,28.3,22.0,30.07,WSW,243,7.0,15.0,78,0.00,,,0.00,weatherlink.com 1.10,2014-12-17 20:47:00,
2014-12-17 16:18:00,28.2,22.0,30.07,NW,315,8.0,18.0,78,0.00,,,0.00,weatherlink.com 1.10,2014-12-17 21:18:00,
2014-12-17 16:33:00,28.2,22.0,30.08,WSW,257,7.0,21.0,78,0.00,,,0.00,weatherlink.com 1.10,2014-12-17 21:33:00,
2014-12-17 16:48:00,28.1,21.0,30.08,West,275,10.0,17.0,76,0.00,,,0.00,weatherlink.com 1.10,2014-12-17 21:48:00,
2014-12-17 17:03:00,28.0,21.0,30.08,NW,304,16.0,21.0,76,0.00,,,0.00,weatherlink.com 1.10,2014-12-17 22:03:00,
2014-12-17 17:18:00,27.9,21.0,30.09,WNW,302,12.0,19.0,75,0.00,,,0.00,weatherlink.com 1.10,2014-12-17 22:18:00,
2014-12-17 17:33:00,27.8,21.0,30.09,WNW,290,7.0,17.0,77,0.00,,,0.00,weatherlink.com 1.10,2014-12-17 22:33:00,
2014-12-17 17:48:00,27.8,22.0,30.10,NW,316,12.0,17.0,78,0.00,,,0.00,weatherlink.com 1.10,2014-12-17 22:48:00,